Flag for U.S.A. Weather past 2 weeks in Ann Arbor, Michigan, U.S.A.

Now
71 °F

Fog.


Feels Like: 67 °F
Forecast: 67 / 83 °F
Wind: 3 mph from East

Location: Ann Arbor Municipal Airport

Current Time: Aug 22, 2014 at 4:38:35 AM

Latest Report: Aug 22, 2014 at 3:53 AM


Visibility: 5 mi

Pressure: 29.92 "Hg

Humidity: 93%

Dew point: 69 °F

Location of Ann ArborLocation

Historic Weather in Ann Arbor — Graph

°F

Ann Arbor temperature yesterday

Maximum temperature yesterday: 83 °F (at 4:00 PM)
Minimum temperature yesterday: 61 °F (at 5:53 AM)
Average temperature yesterday: 71 °F

Past Weeks' High & Low Weather Summary

 TemperatureHumidityPressure
High85 °F (Aug 10, 2:53 PM)97% (Aug 7, 4:02 AM)30.16 "Hg (Aug 7, 4:02 AM)
Low43 °F (Aug 15, 6:53 AM)32% (Aug 7, 4:53 PM)29.67 "Hg (Aug 12, 1:53 PM)
Average68 °F72%29.95 "Hg
* Reported Aug 7 2:00 AM — Aug 22 2:58 AM, Ann Arbor, Weather by CustomWeather, © 2014

Note: Actual official high and low records may vary slightly from our data, if they occured in-between our weather recording intervals... More about our weather records

Advertising

Ann Arbor weather history for previous 24 hours

 ConditionsComfort  
Time TempWeatherWind HumidityBarometerVisibility
2:58 AM
Aug 22
71 °FFog.No wind90%29.96 "Hg1 mi
2:53 AM70 °FFog.No wind90%29.94 "Hg1 mi
2:03 AM70 °FFog.No wind93%29.98 "Hg0 mi
1:53 AM71 °FFog.No wind90%29.97 "Hg1 mi
12:53 AM70 °FFog.No wind93%29.97 "Hg1 mi
11:53 PM
Aug 21
70 °FFog.No wind93%29.98 "Hg1 mi
10:53 PM70 °FFog.No wind93%29.97 "Hg1 mi
9:53 PM72 °FFog.No wind93%29.96 "Hg4 mi
8:53 PM73 °FScattered clouds.5 mph90%29.95 "Hg10 mi
7:53 PM75 °FPartly sunny.No wind85%29.95 "Hg10 mi
6:53 PM75 °FLight rain. More clouds than sun.5 mph85%29.94 "Hg5 mi
5:53 PM80 °FPartly sunny.5 mph69%29.95 "Hg10 mi
4:53 PM80 °FPassing clouds.8 mph67%29.95 "Hg10 mi
4:00 PM83 °FBroken clouds.8 mph63%29.97 "Hg10 mi
2:53 PM80 °FPartly sunny.5 mph69%29.96 "Hg10 mi
1:53 PM79 °FMostly cloudy.3 mph69%29.97 "Hg10 mi
12:53 PM78 °FScattered clouds.5 mph66%29.98 "Hg10 mi
11:53 AM77 °FPartly sunny.No wind66%30.00 "Hg10 mi
10:53 AM75 °FPassing clouds.3 mph69%30.00 "Hg10 mi
9:53 AM75 °FSunny.5 mph69%29.98 "Hg10 mi
8:53 AM72 °FSunny.No wind73%29.97 "Hg10 mi
7:53 AM64 °FSunny.No wind90%29.97 "Hg9 mi
6:53 AM61 °FFog.No wind93%29.95 "Hg1 mi
5:53 AM61 °FFog.No wind93%29.94 "Hg1 mi
4:53 AM63 °FPassing clouds.3 mph90%29.95 "Hg10 mi
Weather by CustomWeather, © 2014

See weather overviewHow to use our weather pages